Date String (YYYY-MM-DD hh:mm:ss) UTC,Instrument flags,absolute air pressure of the measurement (hPa),sample flow rate (lpm),inlet stack bypass flow (lpm),air temperature of the measurement (°C),ambient temperature measured by the external sensor (°C),aerosol sample conditioner tube jacket temperature (°C),OPC LED temperature (°C),internal box temperature (°C),relative humidity of the measurement (%),span deviation,mass concentration of particles derived from Lorenz-Mie calculation of OPC scattering (μg/m³),mass concentration of particles derived from Lorenz-Mie calculation of OPC scattering (μg/m³),mass concentration of particles derived from Lorenz-Mie calculation of OPC scattering (μg/m³)
DateTimeUTC,F1_M11,P_M11,Q1_M11,Q2_M11,T1_M11,T2_M11,T3_M11,T4_M11,T5_M11,U1_M11,ZSPAN_M11,X0_M11,X2_M11,X1_M11
2023-09-04 00:00:00,SystemResetWarning,0828.6,5.00,000.00,029.8,027.0,000.0,038.1,030.3,34.0,0000.0,0008.00,0003.38,0002.96
2023-09-04 00:01:00,SystemResetWarning,0828.6,4.98,000.00,029.8,027.1,000.0,038.0,030.3,34.0,0000.0,0007.96,0003.40,0002.96
2023-09-04 00:02:00,SystemResetWarning,0828.6,4.99,000.00,029.8,026.0,000.0,037.9,030.0,34.0,0000.0,0007.65,0003.42,0002.98
2023-09-04 00:03:00,SystemResetWarning,0828.6,5.00,000.00,029.6,024.6,000.0,037.8,029.6,34.5,0000.0,0007.45,0003.42,0002.99
2023-09-04 00:04:00,SystemResetWarning,0828.6,5.01,000.00,029.5,024.2,000.0,037.7,029.5,34.6,0000.0,0007.80,0003.43,0003.00
2023-09-04 00:05:00,SystemResetWarning,0828.7,5.01,000.00,029.3,024.3,000.0,037.7,029.4,34.7,0000.0,0008.12,0003.45,0003.00
2023-09-04 00:06:00,SystemResetWarning,0828.6,4.97,000.00,029.2,024.7,000.0,037.6,029.5,35.1,0000.0,0008.12,0003.45,0003.02
2023-09-04 00:07:00,SystemResetWarning,0828.7,5.02,000.00,029.3,025.2,000.0,037.6,029.7,34.9,0000.0,0008.16,0003.47,0003.04
2023-09-04 00:08:00,SystemResetWarning,0828.7,5.01,000.00,029.5,025.5,000.0,037.6,029.9,34.8,0000.0,0007.74,0003.50,0003.04
2023-09-04 00:09:00,SystemResetWarning,0828.7,5.00,000.00,029.6,025.9,000.0,037.6,030.0,34.3,0000.0,0007.87,0003.50,0003.04
2023-09-04 00:10:00,SystemResetWarning,0828.8,4.99,000.00,029.7,026.2,000.0,037.6,030.0,33.9,0000.0,0008.10,0003.51,0003.04
2023-09-04 00:11:00,SystemResetWarning,0828.8,5.00,000.00,029.7,026.5,000.0,037.6,030.1,33.5,0000.0,0008.39,0003.51,0003.04
2023-09-04 00:12:00,SystemResetWarning,0828.8,5.01,000.00,029.8,026.7,000.0,037.6,030.1,33.5,0000.0,0007.98,0003.49,0003.04
2023-09-04 00:13:00,SystemResetWarning,0828.9,5.01,000.00,029.8,026.9,000.0,037.7,030.2,33.1,0000.0,0007.83,0003.48,0003.03
2023-09-04 00:14:00,SystemResetWarning,0828.9,5.00,000.00,029.8,027.0,000.0,037.7,030.3,33.4,0000.0,0007.77,0003.47,0003.03
2023-09-04 00:15:00,SystemResetWarning,0829.0,5.00,000.00,029.8,027.1,000.0,037.7,030.3,33.5,0000.0,0007.45,0003.45,0003.02
2023-09-04 00:16:00,SystemResetWarning,0828.9,4.99,000.00,029.8,026.6,000.0,037.7,030.2,33.3,0000.0,0006.81,0003.42,0003.00
2023-09-04 00:17:00,SystemResetWarning,0828.9,4.99,000.00,029.7,025.1,000.0,037.7,029.6,33.3,0000.0,0006.93,0003.44,0003.00
2023-09-04 00:18:00,SystemResetWarning,0828.8,5.01,000.00,029.6,024.2,000.0,037.6,029.5,33.5,0000.0,0006.75,0003.41,0002.98
2023-09-04 00:19:00,SystemResetWarning,0828.9,5.01,000.00,029.4,024.2,000.0,037.5,029.3,33.4,0000.0,0006.72,0003.38,0002.96
2023-09-04 00:20:00,SystemResetWarning,0828.9,5.00,000.00,029.3,024.5,000.0,037.5,029.4,33.7,0000.0,0006.33,0003.40,0002.97
2023-09-04 00:21:00,SystemResetWarning,0828.9,5.00,000.00,029.2,024.9,000.0,037.5,029.5,33.9,0000.0,0005.71,0003.40,0002.98
2023-09-04 00:22:00,SystemResetWarning,0828.9,5.00,000.00,029.2,025.4,000.0,037.5,029.6,33.3,0000.0,0005.34,0003.44,0002.99
2023-09-04 00:23:00,SystemResetWarning,0828.8,4.99,000.00,029.2,025.7,000.0,037.5,029.7,33.5,0000.0,0005.32,0003.43,0002.98
2023-09-04 00:24:00,SystemResetWarning,0828.8,4.99,000.00,029.2,026.1,000.0,037.5,029.8,33.8,0000.0,0005.30,0003.42,0002.97
2023-09-04 00:25:00,SystemResetWarning,0828.8,5.00,000.00,029.2,026.3,000.0,037.5,029.9,33.1,0000.0,0005.22,0003.41,0002.95
2023-09-04 00:26:00,SystemResetWarning,0828.8,5.01,000.00,029.2,026.6,000.0,037.4,029.9,32.8,0000.0,0005.12,0003.38,0002.95
2023-09-04 00:27:00,SystemResetWarning,0828.9,5.01,000.00,029.2,026.8,000.0,037.4,030.0,32.7,0000.0,0005.13,0003.38,0002.94
2023-09-04 00:28:00,SystemResetWarning,0828.8,5.01,000.00,029.2,026.9,000.0,037.4,030.0,32.6,0000.0,0005.25,0003.38,0002.94
2023-09-04 00:29:00,SystemResetWarning,0828.8,5.00,000.00,029.2,027.1,000.0,037.4,030.1,32.9,0000.0,0005.47,0003.40,0002.93
2023-09-04 00:30:00,SystemResetWarning,0828.8,4.99,000.00,029.2,027.0,000.0,037.4,030.1,33.1,0000.0,0005.56,0003.42,0002.93
2023-09-04 00:31:00,SystemResetWarning,0828.8,4.99,000.00,029.2,025.8,000.0,037.3,029.7,33.1,0000.0,0005.57,0003.41,0002.90
2023-09-04 00:32:00,SystemResetWarning,0828.8,5.01,000.00,029.1,025.0,000.0,037.3,029.6,33.7,0000.0,0005.70,0003.40,0002.87
2023-09-04 00:33:00,SystemResetWarning,0828.7,5.01,000.00,028.9,024.9,000.0,037.2,029.4,33.8,0000.0,0005.66,0003.37,0002.85
2023-09-04 00:34:00,SystemResetWarning,0828.8,4.99,000.00,028.8,025.2,000.0,037.2,029.5,34.0,0000.0,0005.75,0003.37,0002.85
2023-09-04 00:35:00,SystemResetWarning,0828.8,5.00,000.00,028.8,025.5,000.0,037.2,029.6,33.9,0000.0,0005.87,0003.37,0002.85
2023-09-04 00:36:00,SystemResetWarning,0828.8,4.99,000.00,028.8,025.9,000.0,037.2,029.7,33.7,0000.0,0005.88,0003.37,0002.84
2023-09-04 00:37:00,SystemResetWarning,0829.0,5.00,000.00,028.8,026.2,000.0,037.2,029.8,33.7,0000.0,0005.91,0003.38,0002.84
2023-09-04 00:38:00,SystemResetWarning,0829.0,5.01,000.00,028.8,026.4,000.0,037.2,029.9,33.5,0000.0,0005.85,0003.35,0002.82
2023-09-04 00:39:00,SystemResetWarning,0829.0,5.01,000.00,028.8,026.6,000.0,037.2,029.9,33.8,0000.0,0005.72,0003.34,0002.80
2023-09-04 00:40:00,SystemResetWarning,0829.0,4.99,000.00,028.8,026.8,000.0,037.2,030.0,34.1,0000.0,0005.39,0003.30,0002.79
2023-09-04 00:41:00,SystemResetWarning,0829.0,5.00,000.00,028.9,027.0,000.0,037.2,030.0,34.2,0000.0,0005.31,0003.29,0002.77
2023-09-04 00:42:00,SystemResetWarning,0829.0,4.99,000.00,028.9,027.0,000.0,037.2,030.1,34.3,0000.0,0005.19,0003.26,0002.75
2023-09-04 00:43:00,SystemResetWarning,0828.9,5.00,000.00,028.9,026.1,000.0,037.1,029.8,33.6,0000.0,0005.02,0003.23,0002.74
2023-09-04 00:44:00,SystemResetWarning,0829.0,5.00,000.00,028.7,024.7,000.0,037.0,029.2,33.3,0000.0,0004.80,0003.20,0002.74
2023-09-04 00:45:00,SystemResetWarning,0828.9,5.00,000.00,028.6,024.0,000.0,036.9,029.1,34.1,0000.0,0004.77,0003.19,0002.71
2023-09-04 00:46:00,SystemResetWarning,0828.9,5.00,000.00,028.4,024.1,000.0,036.9,029.0,34.3,0000.0,0004.51,0003.16,0002.68
2023-09-04 00:47:00,SystemResetWarning,0829.0,5.01,000.00,028.3,024.5,000.0,036.8,029.1,34.2,0000.0,0004.62,0003.18,0002.65
2023-09-04 00:48:00,SystemResetWarning,0829.0,4.98,000.00,028.3,024.9,000.0,036.8,029.3,34.4,0000.0,0004.65,0003.18,0002.63
2023-09-04 00:49:00,SystemResetWarning,0829.0,5.00,000.00,028.3,025.3,000.0,036.8,029.4,34.7,0000.0,0004.75,0003.20,0002.63
2023-09-04 00:50:00,SystemResetWarning,0828.9,5.01,000.00,028.3,025.7,000.0,036.8,029.5,34.8,0000.0,0004.71,0003.17,0002.60
2023-09-04 00:51:00,SystemResetWarning,0828.8,5.00,000.00,028.4,026.0,000.0,036.8,029.6,34.3,0000.0,0004.63,0003.15,0002.57
2023-09-04 00:52:00,SystemResetWarning,0828.7,5.00,000.00,028.4,026.3,000.0,036.8,029.7,33.7,0000.0,0004.57,0003.14,0002.55
2023-09-04 00:53:00,SystemResetWarning,0828.7,4.99,000.00,028.5,026.5,000.0,036.8,029.7,33.7,0000.0,0004.58,0003.12,0002.53
2023-09-04 00:54:00,SystemResetWarning,0828.6,5.00,000.00,028.5,026.7,000.0,036.8,029.8,33.0,0000.0,0004.85,0003.13,0002.52
2023-09-04 00:55:00,SystemResetWarning,0828.5,5.00,000.00,028.5,026.8,000.0,036.8,029.9,32.8,0000.0,0004.85,0003.12,0002.50
2023-09-04 00:56:00,SystemResetWarning,0828.4,5.01,000.00,028.6,027.0,000.0,036.8,029.9,32.9,0000.0,0004.74,0003.11,0002.48
2023-09-04 00:57:00,SystemResetWarning,0828.3,5.01,000.00,028.6,027.0,000.0,036.8,029.9,32.4,0000.0,0004.73,0003.09,0002.47
2023-09-04 00:58:00,SystemResetWarning,0828.2,4.98,000.00,028.6,025.9,000.0,036.8,029.6,32.0,0000.0,0004.60,0003.04,0002.46
2023-09-04 00:59:00,SystemResetWarning,0828.0,5.00,000.00,028.4,024.5,000.0,036.7,029.1,32.9,0000.0,0004.42,0002.97,0002.44
